Home   Weather   Kitzbühel   Past weeks

Flag for Austria Past Weather in Kitzbühel, Tyrol, Austria — Yesterday and Last 2 Weeks

Now
25 °F

Cold.


Feels Like: 25 °F
Forecast: 31 / 50 °F
Wind: 2 mph from Southwest

Location: Kufstein

Current Time: Dec 7, 2016 at 9:54:22 am

Latest Report: Dec 7, 2016 at 9:00 am


Visibility: N/A

Pressure: 30.70 "Hg (27.91 "Hg at 750m altitude)

Humidity: 82%

Dew Point: 20 °F

Location of KitzbühelLocation

Past Weather in Kitzbühel — Graph

°F

Kitzbühel Temperature Yesterday

Maximum temperature yesterday: 40 °F (at 3:00 pm)
Minimum temperature yesterday: 26 °F (at 4:00 am)
Average temperature yesterday: 30 °F

High & Low Weather Summary for the Past Weeks

 TemperatureHumidityPressure
High64 °F (Nov 22, 12:00 pm)95% (Nov 27, 7:00 am)30.69 "Hg (Nov 27, 7:00 am)
Low21 °F (Nov 29, 7:00 am)43% (Nov 22, 12:00 pm)29.87 "Hg (Nov 22, 12:00 pm)
Average36 °F79%30.28 "Hg
* Reported Nov 22 8:00 am — Dec 7 8:00 am, Kitzbühel, Weather by CustomWeather, © 2016

Note: Actual official high and low records may vary slightly from our data, if they occured in-between our weather recording intervals... More about our weather records

Advertising

Kitzbühel Weather History for the Previous 24 Hours

Scroll right to see more
 ConditionsComfort  
Time TempWeatherWind HumidityBarometerVisibility
8:00 am
Wed, Dec 7
25 °FCold.1 mph82%30.68 "HgN/A
7:00 am25 °FClear.2 mph83%30.69 "Hg9 mi
6:00 am25 °FCold.1 mph83%30.69 "HgN/A
5:00 am26 °FChilly.3 mph82%30.68 "HgN/A
4:00 am25 °FChilly.2 mph83%30.67 "HgN/A
3:00 am27 °FChilly.3 mph81%30.66 "HgN/A
1:00 am25 °FChilly.1 mph82%30.65 "HgN/A
12:00 am26 °FChilly.No wind81%30.65 "HgN/A
11:00 pm
Tue, Dec 6
27 °FChilly.1 mph81%30.63 "HgN/A
10:00 pm27 °FChilly.No wind79%30.63 "HgN/A
9:00 pm28 °FChilly.No wind78%30.62 "HgN/A
8:00 pm29 °FChilly.1 mph76%30.61 "HgN/A
6:00 pm31 °FPassing clouds.30 mph69%30.57 "Hg1 mi
5:00 pm33 °FChilly.No wind66%30.54 "HgN/A
4:00 pm37 °FChilly.No wind58%30.50 "HgN/A
3:00 pm40 °FQuite cool.No wind51%30.48 "HgN/A
2:00 pm39 °FChilly.1 mph50%30.49 "HgN/A
1:00 pm38 °FChilly.No wind52%30.50 "HgN/A
12:00 pm38 °FChilly.2 mph49%30.52 "HgN/A
11:00 am33 °FChilly.2 mph63%30.56 "HgN/A
10:00 am28 °FChilly.3 mph73%30.58 "HgN/A
9:00 am27 °FChilly.2 mph77%30.58 "HgN/A
Weather by CustomWeather, © 2016

See weather overviewHow to use our weather pages